Weather History for Taos, NM

Change the Weather History Date:

Tuesday, January 1, 2013

  Actual Average Record
Temperature  
Mean Temperature 12 °F -  
Max Temperature 26 °F 40 °F 46 °F (1998)
Min Temperature -5 °F 9 °F -18 °F (2011)
Degree Days  
Heating Degree Days 53    
Moisture  
Dew Point 8 °F    
Average Humidity 74    
Maximum Humidity 100    
Minimum Humidity 54    
Precipitation  
Precipitation 0.00 in - - ()
Sea Level Pressure  
Sea Level Pressure 30.06 in    
Wind  
Wind Speed 5 mph (SW)    
Max Wind Speed 9 mph    
Max Gust Speed -    
Visibility 9 miles    
Events      
Averages and records for this station are not official NWS values.
T = Trace of Precipitation, MM = Missing Value Source: NWS Daily Summary

Daily Weather History Graph

Daily Weather History Graph

Search for Another Location

Airport:

Trip Planner

Search our weather history database for the weather conditions in past years. The results will help you decide how hot, cold, wet, or windy it might be!

Date:

Astronomy

Jan. 01, 2013 Rise Set
Actual Time 7:14 AM MST 4:58 PM MST
Civil Twilight 6:45 AM MST 5:27 PM MST
Nautical Twilight 6:13 AM MST 5:59 PM MST
Astronomical Twilight 5:42 AM MST 6:30 PM MST
Moon 9:24 PM MST 9:35 AM MST
Length of Visible Light 10h 41m
Length of Day
9h 43m
Waning Gibbous, 83% of the Moon is Illuminated
Jan 1
Waning Gibbous
Jan 4
Last Quarter
Jan 11
New
Jan 18
First Quarter
Jan 26
Full

Hourly Weather History & Observations

Time (MST) Temp. Windchill Dew Point Humidity Pressure Visibility Wind Dir Wind Speed Gust Speed Precip Events Conditions
12:35 AM 19.4 °F 8.6 °F 12.2 °F 74% 29.98 in 10.0 mi SSW 9.2 mph - N/A   Overcast
12:55 AM 19.4 °F 9.5 °F 12.2 °F 74% 29.98 in 10.0 mi SSW 8.1 mph - N/A   Overcast
1:15 AM 19.4 °F 9.5 °F 14.0 °F 80% 29.99 in 10.0 mi SSW 8.1 mph - N/A   Overcast
1:35 AM 19.4 °F 8.6 °F 12.2 °F 74% 29.99 in 10.0 mi SW 9.2 mph - N/A   Overcast
1:55 AM 15.8 °F 6.1 °F 10.4 °F 79% 30.00 in 10.0 mi SSW 6.9 mph - N/A   Overcast
2:15 AM 15.8 °F 10.2 °F 10.4 °F 79% 30.00 in 10.0 mi South 3.5 mph - N/A   Overcast
2:35 AM 14.0 °F 6.5 °F 8.6 °F 79% 30.01 in 10.0 mi South 4.6 mph - N/A   Overcast
2:55 AM 10.4 °F - 6.8 °F 85% 30.01 in 10.0 mi Calm Calm - N/A   Mostly Cloudy
3:15 AM 10.4 °F - 3.2 °F 73% 30.01 in 10.0 mi Calm Calm - N/A   Mostly Cloudy
3:35 AM 12.2 °F 4.3 °F 8.6 °F 85% 30.01 in 10.0 mi SSW 4.6 mph - N/A   Overcast
3:55 AM 12.2 °F 2.9 °F 8.6 °F 85% 30.01 in 10.0 mi South 5.8 mph - N/A   Overcast
4:15 AM 12.2 °F 2.9 °F 8.6 °F 85% 30.02 in 10.0 mi SSW 5.8 mph - N/A   Overcast
4:35 AM 12.2 °F 2.9 °F 10.4 °F 92% 30.02 in 10.0 mi SSW 5.8 mph - N/A   Overcast
5:15 AM 8.6 °F - 6.8 °F 92% 30.03 in 10.0 mi Calm Calm - N/A   Scattered Clouds
5:35 AM 10.4 °F 4.0 °F 8.6 °F 92% 30.03 in 10.0 mi SW 3.5 mph - N/A   Clear
5:55 AM 6.8 °F - -0.4 °F 72% 30.04 in 10.0 mi Calm Calm - N/A   Clear
6:15 AM 6.8 °F - 1.4 °F 79% 30.05 in 10.0 mi Calm Calm - N/A   Clear
6:35 AM 5.0 °F - 3.2 °F 92% 30.06 in 10.0 mi Calm Calm - N/A   Clear
6:55 AM 6.8 °F - 6.8 °F 100% 30.07 in 10.0 mi Calm Calm - N/A   Clear
7:15 AM 6.8 °F - -0.4 °F 72% 30.07 in 10.0 mi Calm Calm - N/A   Clear
7:35 AM -0.4 °F -10.4 °F -7.6 °F 72% 30.08 in 0.5 mi North 4.6 mph - N/A   Unknown
8:15 AM 3.2 °F - -7.6 °F 61% 30.09 in 10.0 mi Calm Calm - N/A   Partly Cloudy
8:55 AM 12.2 °F - 8.6 °F 85% 30.10 in 10.0 mi Calm Calm - N/A   Clear
9:35 AM 12.2 °F - 10.4 °F 92% 30.11 in 10.0 mi Calm Calm - N/A   Clear
9:55 AM 15.8 °F - 12.2 °F 86% 30.12 in 10.0 mi Calm Calm - N/A   Clear
10:15 AM 17.6 °F 9.3 °F 10.4 °F 73% 30.12 in 10.0 mi WSW 5.8 mph - N/A   Clear
10:35 AM 19.4 °F 8.6 °F 10.4 °F 68% 30.12 in 10.0 mi SW 9.2 mph - N/A   Partly Cloudy
10:55 AM 19.4 °F 11.5 °F 10.4 °F 68% 30.12 in 10.0 mi WSW 5.8 mph - N/A   Mostly Cloudy
11:15 AM 19.4 °F 9.5 °F 10.4 °F 68% 30.12 in 10.0 mi SW 8.1 mph - N/A   Overcast
11:55 AM 23.0 °F 13.9 °F 12.2 °F 63% 30.09 in 10.0 mi SW 8.1 mph - N/A   Mostly Cloudy
12:15 PM 24.8 °F 16.1 °F 10.4 °F 54% 30.08 in 10.0 mi SW 8.1 mph - N/A   Mostly Cloudy
12:35 PM 24.8 °F 16.9 °F 12.2 °F 59% 30.07 in 10.0 mi WSW 6.9 mph - N/A   Mostly Cloudy
12:55 PM 21.2 °F 16.4 °F 12.2 °F 68% 30.06 in 10.0 mi South 3.5 mph - N/A   Overcast
1:15 PM 21.2 °F - 10.4 °F 63% 30.06 in 10.0 mi Calm Calm - N/A   Mostly Cloudy
1:55 PM 24.8 °F 20.5 °F 12.2 °F 59% 30.05 in 10.0 mi NW 3.5 mph - N/A   Overcast
2:15 PM 24.8 °F - 12.2 °F 59% 30.06 in 10.0 mi Calm Calm - N/A   Overcast
2:35 PM 24.8 °F - 12.2 °F 59% 30.05 in 10.0 mi Calm Calm - N/A   Overcast
2:55 PM 26.6 °F 22.6 °F 12.2 °F 55% 30.05 in 10.0 mi ESE 3.5 mph - N/A   Overcast
3:15 PM 24.8 °F - 10.4 °F 54% 30.06 in 10.0 mi Calm Calm - N/A   Overcast
3:35 PM 24.8 °F 19.1 °F 10.4 °F 54% 30.06 in 10.0 mi NE 4.6 mph - N/A   Overcast
4:15 PM 24.8 °F 19.1 °F 12.2 °F 59% 30.06 in 10.0 mi NNE 4.6 mph - N/A   Overcast
4:35 PM 24.8 °F - 12.2 °F 59% 30.08 in 10.0 mi Calm Calm - N/A   Overcast
4:55 PM 21.2 °F 11.7 °F 10.4 °F 63% 30.08 in 10.0 mi North 8.1 mph - N/A   Overcast
5:15 PM 19.4 °F 10.4 °F 12.2 °F 74% 30.09 in 10.0 mi North 6.9 mph - N/A   Overcast
5:35 PM 19.4 °F 10.4 °F 12.2 °F 74% 30.09 in 5.0 mi NNE 6.9 mph - N/A   Overcast
5:55 PM 19.4 °F 12.8 °F 14.0 °F 80% 30.10 in 3.0 mi NNE 4.6 mph - N/A   Overcast
6:15 PM 17.6 °F - 14.0 °F 86% 30.10 in 5.0 mi Calm Calm - N/A   Overcast
8:55 PM 8.6 °F -1.3 °F 3.2 °F 79% 30.13 in 5.0 mi NNW 5.8 mph - N/A   Overcast
9:55 PM 3.2 °F -7.8 °F -2.2 °F 78% 30.15 in 10.0 mi NE 5.8 mph - N/A   Clear
10:35 PM -2.2 °F -14.2 °F -5.8 °F 85% 30.16 in 10.0 mi NNW 5.8 mph - N/A   Clear
11:35 PM -5.8 °F -21.2 °F -13.0 °F 71% 30.18 in 10.0 mi North 8.1 mph - N/A   Clear